• In Schweiz
  • Länderverzeichnis
  • Für 7 Tage
  • Wassertemperatur
  • Satellitenkarten
  • Wetterkarte
  • Widgets
  • user-avatar
    Anmelden

    Stündliche Wetter Lyubyacha

    Heute, 15 November, Donnerstag

    Zeit Temperatur Niederschläge Wind Luftdruck Luftfeuchtigkeit
    00:00 +2°C° 0.4 mm 3 m/S 751 mmHg 93%
    01:00 +2°C° 0.4 mm 3 m/S 751 mmHg 93%
    02:00 +2°C° 0 mm 3 m/S 752 mmHg 93%
    03:00 +2°C° 0.3 mm 3 m/S 752 mmHg 92%
    04:00 +2°C° 0.3 mm 3 m/S 752 mmHg 92%
    05:00 +2°C° 0.3 mm 3 m/S 752 mmHg 91%
    06:00 +1°C° 0.2 mm 3 m/S 753 mmHg 91%
    07:00 +1°C° 0.2 mm 3 m/S 753 mmHg 90%
    08:00 0°C° 0.2 mm 3 m/S 754 mmHg 89%
    09:00 -1°C° 0 mm 4 m/S 754 mmHg 87%
    10:00 -1°C° 0 mm 4 m/S 755 mmHg 84%
    11:00 -1°C° 0 mm 4 m/S 756 mmHg 82%
    12:00 0°C° 0 mm 3 m/S 756 mmHg 82%
    13:00 0°C° 0 mm 3 m/S 756 mmHg 81%
    14:00 0°C° 0 mm 3 m/S 757 mmHg 81%
    15:00 0°C° 0 mm 3 m/S 757 mmHg 83%
    16:00 0°C° 0 mm 3 m/S 758 mmHg 85%
    17:00 0°C° 0 mm 3 m/S 758 mmHg 87%
    18:00 +1°C° 0 mm 2 m/S 759 mmHg 88%
    19:00 +1°C° 0 mm 2 m/S 759 mmHg 89%
    20:00 +1°C° 0 mm 2 m/S 759 mmHg 90%
    21:00 +1°C° 0 mm 2 m/S 760 mmHg 91%
    22:00 +1°C° 0 mm 2 m/S 760 mmHg 91%
    23:00 +1°C° 0 mm 2 m/S 760 mmHg 92%

    Morgen, 16 November, Freitag

    Zeit Temperatur Niederschläge Wind Luftdruck Luftfeuchtigkeit
    00:00 +1°C° 0 mm 2 m/S 761 mmHg 92%
    01:00 +1°C° 0 mm 2 m/S 761 mmHg 93%
    02:00 +1°C° 0 mm 2 m/S 762 mmHg 93%
    03:00 +1°C° 0 mm 2 m/S 762 mmHg 94%
    04:00 -1°C° 0 mm 2 m/S 762 mmHg 94%
    05:00 -1°C° 0 mm 2 m/S 762 mmHg 95%
    06:00 -1°C° 0 mm 2 m/S 762 mmHg 95%
    07:00 -2°C° 0 mm 2 m/S 763 mmHg 95%
    08:00 -2°C° 0 mm 2 m/S 763 mmHg 95%
    09:00 -1°C° 0 mm 2 m/S 763 mmHg 90%
    10:00 +1°C° 0 mm 2 m/S 764 mmHg 85%
    11:00 +1°C° 0 mm 2 m/S 764 mmHg 81%
    12:00 +2°C° 0 mm 2 m/S 764 mmHg 78%
    13:00 +2°C° 0 mm 2 m/S 764 mmHg 76%
    14:00 +3°C° 0 mm 2 m/S 764 mmHg 74%
    15:00 +2°C° 0 mm 2 m/S 764 mmHg 77%
    16:00 +1°C° 0 mm 2 m/S 764 mmHg 81%
    17:00 -1°C° 0 mm 2 m/S 764 mmHg 85%
    18:00 -1°C° 0 mm 2 m/S 764 mmHg 84%
    19:00 -2°C° 0 mm 2 m/S 764 mmHg 84%
    20:00 -2°C° 0 mm 2 m/S 764 mmHg 84%
    21:00 -2°C° 0 mm 2 m/S 764 mmHg 82%
    22:00 -2°C° 0 mm 2 m/S 765 mmHg 81%
    23:00 -2°C° 0 mm 2 m/S 765 mmHg 79%

    übermorgen, 17 November, Samstag

    Zeit Temperatur Niederschläge Wind Luftdruck Luftfeuchtigkeit
    00:00 0°C° 0 mm 1 m/S 765 mmHg 77%
    01:00 -1°C° 0 mm 1 m/S 765 mmHg 75%
    02:00 -1°C° 0 mm 1 m/S 765 mmHg 73%
    03:00 -1°C° 0 mm 1 m/S 764 mmHg 71%
    04:00 -1°C° 0 mm 1 m/S 764 mmHg 69%
    05:00 -1°C° 0 mm 1 m/S 764 mmHg 67%
    06:00 -1°C° 0 mm 1 m/S 764 mmHg 66%
    07:00 -1°C° 0 mm 1 m/S 764 mmHg 65%
    08:00 -1°C° 0 mm 1 m/S 764 mmHg 63%
    09:00 0°C° 0 mm 1 m/S 764 mmHg 58%
    10:00 +1°C° 0 mm 0 m/S 763 mmHg 54%
    11:00 +2°C° 0 mm 0 m/S 763 mmHg 49%
    12:00 +2°C° 0 mm 0 m/S 763 mmHg 49%
    13:00 +3°C° 0 mm 1 m/S 762 mmHg 49%
    14:00 +4°C° 0 mm 1 m/S 762 mmHg 49%
    15:00 +3°C° 0 mm 1 m/S 761 mmHg 54%
    16:00 +2°C° 0 mm 1 m/S 761 mmHg 58%
    17:00 -1°C° 0 mm 2 m/S 760 mmHg 63%
    18:00 +1°C° 0 mm 2 m/S 760 mmHg 65%
    19:00 +1°C° 0 mm 2 m/S 759 mmHg 67%
    20:00 +1°C° 0 mm 2 m/S 759 mmHg 69%
    21:00 +1°C° 0 mm 2 m/S 758 mmHg 72%
    22:00 -1°C° 0 mm 3 m/S 758 mmHg 76%
    23:00 -1°C° 0 mm 3 m/S 757 mmHg 80%

    18 November, Sonntag

    Zeit Temperatur Niederschläge Wind Luftdruck Luftfeuchtigkeit
    00:00 0°C° 0 mm 3 m/S 756 mmHg 83%
    01:00 0°C° 0 mm 3 m/S 756 mmHg 85%
    02:00 0°C° 0 mm 3 m/S 755 mmHg 87%
    03:00 0°C° 0 mm 3 m/S 754 mmHg 89%
    04:00 -1°C° 0 mm 4 m/S 753 mmHg 90%
    05:00 -1°C° 0 mm 4 m/S 752 mmHg 92%
    06:00 0°C° 0.1 mm 4 m/S 752 mmHg 92%
    07:00 +1°C° 0.1 mm 3 m/S 751 mmHg 93%
    08:00 +1°C° 0.1 mm 3 m/S 750 mmHg 94%
    09:00 +1°C° 0.1 mm 3 m/S 750 mmHg 93%
    10:00 +1°C° 0.1 mm 3 m/S 750 mmHg 92%
    11:00 +2°C° 0.1 mm 3 m/S 749 mmHg 91%
    12:00 +2°C° 0.1 mm 3 m/S 749 mmHg 90%
    13:00 +2°C° 0.1 mm 3 m/S 749 mmHg 89%
    14:00 +2°C° 0.1 mm 3 m/S 748 mmHg 89%
    15:00 +2°C° 0.1 mm 3 m/S 748 mmHg 90%
    16:00 +1°C° 0.1 mm 3 m/S 748 mmHg 91%
    17:00 +2°C° 0.1 mm 2 m/S 747 mmHg 93%
    18:00 +2°C° 0.2 mm 2 m/S 747 mmHg 93%
    19:00 +2°C° 0.2 mm 2 m/S 747 mmHg 94%
    20:00 +1°C° 0.2 mm 2 m/S 747 mmHg 94%
    21:00 +1°C° 0.2 mm 2 m/S 747 mmHg 94%
    22:00 +1°C° 0.2 mm 2 m/S 747 mmHg 95%
    23:00 +1°C° 0.2 mm 2 m/S 747 mmHg 95%

    19 November, Montag

    Zeit Temperatur Niederschläge Wind Luftdruck Luftfeuchtigkeit
    00:00 +1°C° 0.1 mm 2 m/S 747 mmHg 95%
    01:00 +1°C° 0.1 mm 2 m/S 747 mmHg 95%
    02:00 0°C° 0.1 mm 3 m/S 747 mmHg 96%
    03:00 0°C° 0.2 mm 3 m/S 748 mmHg 95%
    04:00 0°C° 0.2 mm 3 m/S 748 mmHg 95%
    05:00 0°C° 0.2 mm 3 m/S 748 mmHg 95%
    06:00 0°C° 0.1 mm 3 m/S 748 mmHg 94%
    07:00 0°C° 0.1 mm 3 m/S 749 mmHg 93%
    08:00 -1°C° 0.1 mm 4 m/S 749 mmHg 93%
    09:00 -1°C° 0.1 mm 4 m/S 750 mmHg 91%
    10:00 -1°C° 0.1 mm 4 m/S 750 mmHg 89%
    11:00 -1°C° 0.1 mm 4 m/S 750 mmHg 87%
    12:00 -1°C° 0.1 mm 4 m/S 751 mmHg 86%
    13:00 -1°C° 0.1 mm 4 m/S 751 mmHg 85%
    14:00 -1°C° 0.1 mm 4 m/S 751 mmHg 84%
    15:00 -1°C° 0 mm 4 m/S 751 mmHg 86%
    16:00 -1°C° 0 mm 4 m/S 751 mmHg 87%
    17:00 -2°C° 0 mm 4 m/S 752 mmHg 89%
    18:00 -2°C° 0 mm 4 m/S 752 mmHg 89%
    19:00 -2°C° 0 mm 4 m/S 752 mmHg 89%
    20:00 -2°C° 0 mm 4 m/S 752 mmHg 89%
    21:00 -3°C° 0 mm 4 m/S 753 mmHg 87%
    22:00 -3°C° 0 mm 4 m/S 753 mmHg 86%
    23:00 -4°C° 0 mm 4 m/S 753 mmHg 84%

    20 November, Dienstag

    Zeit Temperatur Niederschläge Wind Luftdruck Luftfeuchtigkeit
    00:00 -4°C° 0 mm 4 m/S 754 mmHg 83%
    01:00 -5°C° 0 mm 4 m/S 754 mmHg 82%
    02:00 -5°C° 0 mm 4 m/S 754 mmHg 81%
    03:00 -5°C° 0 mm 4 m/S 754 mmHg 81%
    04:00 -5°C° 0 mm 4 m/S 754 mmHg 80%
    05:00 -5°C° 0 mm 4 m/S 754 mmHg 80%
    06:00 -5°C° 0 mm 4 m/S 754 mmHg 82%
    07:00 -5°C° 0 mm 4 m/S 754 mmHg 84%
    08:00 -5°C° 0 mm 4 m/S 754 mmHg 87%
    09:00 -4°C° 0 mm 4 m/S 754 mmHg 85%
    10:00 -4°C° 0 mm 5 m/S 754 mmHg 83%
    11:00 -2°C° 0 mm 5 m/S 754 mmHg 81%
    12:00 -2°C° 0 mm 5 m/S 753 mmHg 80%
    13:00 -2°C° 0 mm 5 m/S 753 mmHg 79%
    14:00 -2°C° 0 mm 5 m/S 753 mmHg 79%
    15:00 -2°C° 0 mm 5 m/S 752 mmHg 80%
    16:00 -2°C° 0 mm 4 m/S 752 mmHg 81%
    17:00 -3°C° 0 mm 4 m/S 752 mmHg 82%
    18:00 -3°C° 0 mm 4 m/S 752 mmHg 82%
    19:00 -5°C° 0 mm 5 m/S 752 mmHg 83%
    20:00 -5°C° 0 mm 5 m/S 752 mmHg 83%
    21:00 -5°C° 0 mm 5 m/S 751 mmHg 83%
    22:00 -5°C° 0 mm 5 m/S 751 mmHg 83%
    23:00 -5°C° 0 mm 5 m/S 751 mmHg 83%
    Mehr zeigen